Regional Weather Roundup
Issued by NWS

Home | Current Version | Previous Version | Graphics & Text | Print | Product List | Glossary On
Versions: 1 2 3 4 5 6 7 8 9 10 11 12 13 14 15 16 17 18 19 20 21 22 23 24 25 26 27 28 29 30 31 32 33 34 35 36 37 38 39 40 41 42 43 44 45 46 47 48 49 50
000
ASUS43 KFSD 250610
RWRSD

WEATHER ROUNDUP FOR SOUTH DAKOTA
NATIONAL WEATHER SERVICE SIOUX FALLS SD
100 AM CDT FRI JUL 25 2014

NOTE: "FAIR" INDICATES FEW OR NO CLOUDS BELOW 12,000 FEET WITH NO
SIGNIFICANT WEATHER AND/OR OBSTRUCTIONS TO VISIBILITY.


SDZ001>005-009-010-012>017-250700-
NORTHWEST AND NORTH CENTRAL SOUTH DAKOTA

CITY           SKY/WX    TMP DP  RH WIND       PRES   REMARKS
BUFFALO          N/A     66  49  54 N28       29.77R
FAITH            N/A     74  56  53 SE17G24   29.70R
MOBRIDGE       CLOUDY    72  65  78 SE17G28   29.60R THUNDER
$$

SDZ012>016-024>037-041>051-057-063-072>074-250700-
SOUTHWEST AND SOUTH CENTRAL SOUTH DAKOTA

CITY           SKY/WX    TMP DP  RH WIND       PRES   REMARKS
RAPID CTY ARPT CLEAR     73  66  78 N14       29.77R
PIERRE         MOCLDY    75  67  76 E15       29.67F
CUSTER         CLEAR     70  46  42 N5        29.94S
ELLSWORTH AFB  CLEAR     74  66  76 N21       29.79R
PHILIP         CLEAR     75  66  73 E16       29.69R
PINE RIDGE     CLEAR     78  55  44 S15G22    29.77S
WINNER         FAIR      80  60  50 S26G35    29.68R
$$

SDZ004>011-016>023-039-040-250700-
NORTHEAST SOUTH DAKOTA

CITY           SKY/WX    TMP DP  RH WIND       PRES   REMARKS
ABERDEEN       TSTM      68  65  90 SW17G25   29.71F
WATERTOWN      MOCLDY    67  62  84 S16       29.74F
SISSETON         N/A     66  62  87 S12       29.73F
$$

SDZ017-020-022-023-036>040-048>070-250700-
SOUTHEAST SOUTH DAKOTA

CITY           SKY/WX    TMP DP  RH WIND       PRES   REMARKS
SIOUX FALLS    MOCLDY    69  62  78 SE8       29.78F
HURON          MOCLDY    70  62  76 SE12G18   29.70R
CHAMBERLAIN    MOCLDY    76  63  63 S7        29.67R
MITCHELL       MOCLDY    72  64  76 SE12      29.68F
YANKTON        CLOUDY    73  64  73 NE9       29.72F
$$

ABBREVIATIONS USED IN REMARKS
   TC - TEMPERATURE IN CELSIUS
  WCI - WIND CHILL INDEX
   HX - HEAT INDEX
  VSB - VISIBILITY




USA.gov is the U.S. government's official web portal to all federal, state and local government web resources and services.